User: anonymous
Location: Bishop's University Astronomical Observatory
(45.3661°N, 71.8475°W)
Time: 06:33:43
(UTC-04:00)
Language:

Meteor 2-5 Rocket - Orbit

View from above orbital plane
View from above orbital plane
View from above satellite
View from above satellite

Ground track
Ground track

The orbit data is extracted from the following two-line orbital elements,

1 11608U 79095B   14205.04297340  .00000073  00000-0  36656-4 0  5982
2 11608 081.2156 158.7257 0053719 257.6777 149.8100 14.06009681781242
Epoch (UTC): 24 July 2014 01:01:52
Eccentricity: 0.0053719
inclination: 81.2156°
perigee height: 834 km
apogee height: 912 km
right ascension of ascending node: 158.7257°
argument of perigee: 257.6777°
revolutions per day: 14.06009681
mean anomaly at epoch: 149.8100°
orbit number at epoch: 78124

The dashed part of the orbit path shows where the satellite is in the earth's shadow,  

DLR